Location: Puketoi
(40.5833°S, 176.0167°E)
Time: 15:53:45
(UTC+00:00)

PAYLOAD A - Pass Details

Date: 29 September 2023
Orbit: 691 x 830 km, 98.5° (Epoch: 10 December)

Event Time Altitude Azimuth Distance (km) Brightness Sun altitude
Exits shadow 16:31:03 11° 238° (WSW) 2,410 6.2 -16.1°
Drops below altitude 10° 16:31:18 10° 236° (SW) 2,461 6.3 -16.1°
Sets 16:34:49 0° 213° (SSW) 3,409 7.2 -15.5°
